Date String (YYYY-MM-DD hh:mm:ss) UTC,Instrument flags,Ambient pressure (hPa),Sample flow (lpm),Bypass flow (lpm),Sample temperature (°C),Ambient temperature (°C),ASC tube jacket temperature (°C),LED temperature (°C),Box temperature (°C),Sample RH (%),Span deviation,Mass concentration (μg/m³),Mass concentration (μg/m³),Mass concentration (μg/m³)
DateTimeUTC,F1_M11,P_M11,Q1_M11,Q2_M11,T1_M11,T2_M11,T3_M11,T4_M11,T5_M11,U1_M11,ZSPAN_M11,X0_M11,X2_M11,X1_M11
2021-12-20 21:00:00,,0825.4,5.00,0.00,26.3,25.6,00.0,35.3,28.1,07.6,0000.0,0003.36,0000.37,0000.23
2021-12-20 21:01:00,,0825.4,5.01,0.00,26.3,25.6,00.0,35.3,28.1,07.5,0000.0,0003.25,0000.36,0000.23
2021-12-20 21:02:00,,0825.4,5.00,0.00,26.3,25.6,00.0,35.3,28.1,07.6,0000.0,0003.33,0000.37,0000.23
2021-12-20 21:03:00,,0825.5,4.99,0.00,26.3,25.6,00.0,35.3,28.1,07.6,0000.0,0003.37,0000.38,0000.24
2021-12-20 21:04:00,,0825.5,5.01,0.00,26.4,25.6,00.0,35.3,28.1,07.5,0000.0,0003.38,0000.39,0000.24
2021-12-20 21:05:00,,0825.5,5.00,0.00,26.4,25.6,00.0,35.3,28.2,07.5,0000.0,0003.38,0000.39,0000.25
2021-12-20 21:06:00,,0825.5,4.99,0.00,26.4,25.6,00.0,35.3,28.2,07.5,0000.0,0002.61,0000.39,0000.24
2021-12-20 21:07:00,,0825.6,5.01,0.00,26.4,25.6,00.0,35.3,28.1,07.5,0000.0,0002.18,0000.38,0000.25
2021-12-20 21:08:00,,0825.6,4.99,0.00,26.4,25.7,00.0,35.4,28.1,07.5,0000.0,0001.02,0000.35,0000.25
2021-12-20 21:09:00,,0825.6,5.01,0.00,26.4,25.6,00.0,35.4,28.1,07.4,0000.0,0000.55,0000.31,0000.25
2021-12-20 21:10:00,,0825.6,5.00,0.00,26.4,25.7,00.0,35.4,28.2,07.4,0000.0,0000.61,0000.32,0000.25
2021-12-20 21:11:00,,0825.6,5.00,0.00,26.4,25.7,00.0,35.4,28.2,07.4,0000.0,0000.61,0000.32,0000.25
2021-12-20 21:12:00,,0825.5,5.00,0.00,26.4,25.7,00.0,35.4,28.2,07.4,0000.0,0000.61,0000.32,0000.25
2021-12-20 21:13:00,,0825.6,5.00,0.00,26.4,25.6,00.0,35.4,28.2,07.4,0000.0,0000.64,0000.32,0000.25
2021-12-20 21:14:00,,0825.6,5.01,0.00,26.4,25.6,00.0,35.4,28.2,07.4,0000.0,0000.59,0000.32,0000.25
2021-12-20 21:15:00,,0825.5,4.99,0.00,26.4,25.7,00.0,35.4,28.2,07.4,0000.0,0000.58,0000.31,0000.25
2021-12-20 21:16:00,,0825.6,5.01,0.00,26.4,25.7,00.0,35.4,28.2,07.4,0000.0,0000.60,0000.32,0000.25
2021-12-20 21:17:00,,0825.6,5.01,0.00,26.5,25.7,00.0,35.4,28.3,07.4,0000.0,0000.60,0000.32,0000.25
2021-12-20 21:18:00,,0825.6,4.99,0.00,26.5,25.7,00.0,35.4,28.3,07.4,0000.0,0000.65,0000.34,0000.25
2021-12-20 21:19:00,,0825.6,5.00,0.00,26.5,25.7,00.0,35.4,28.3,07.3,0000.0,0001.03,0000.35,0000.25
2021-12-20 21:20:00,,0825.6,5.01,0.00,26.5,25.7,00.0,35.4,28.3,07.3,0000.0,0001.34,0000.35,0000.25
2021-12-20 21:21:00,,0825.6,4.98,0.00,26.5,25.7,00.0,35.4,28.3,07.3,0000.0,0001.27,0000.35,0000.25
2021-12-20 21:22:00,,0825.6,5.02,0.00,26.5,25.7,00.0,35.5,28.3,07.3,0000.0,0001.40,0000.37,0000.25
2021-12-20 21:23:00,,0825.6,4.98,0.00,26.5,25.7,00.0,35.5,28.3,07.3,0000.0,0001.42,0000.38,0000.26
2021-12-20 21:24:00,,0825.7,5.02,0.00,26.5,25.8,00.0,35.5,28.3,07.2,0000.0,0001.34,0000.38,0000.26
2021-12-20 21:25:00,,0825.7,4.99,0.00,26.5,25.8,00.0,35.5,28.3,07.2,0000.0,0001.31,0000.38,0000.27
2021-12-20 21:26:00,,0825.6,4.99,0.00,26.6,25.7,00.0,35.5,28.3,07.3,0000.0,0001.32,0000.38,0000.27
2021-12-20 21:27:00,,0825.6,5.00,0.00,26.6,25.7,00.0,35.5,28.3,07.2,0000.0,0001.32,0000.38,0000.28
2021-12-20 21:28:00,,0825.6,5.02,0.00,26.6,25.8,00.0,35.5,28.3,07.2,0000.0,0001.37,0000.40,0000.28
2021-12-20 21:29:00,,0825.7,4.99,0.00,26.6,25.8,00.0,35.5,28.4,07.2,0000.0,0001.40,0000.41,0000.29
2021-12-20 21:30:00,,0825.6,5.01,0.00,26.6,25.8,00.0,35.5,28.3,07.2,0000.0,0001.18,0000.42,0000.29
2021-12-20 21:31:00,,0825.7,4.98,0.00,26.6,25.8,00.0,35.5,28.3,07.2,0000.0,0000.81,0000.45,0000.30
2021-12-20 21:32:00,,0825.9,5.00,0.00,26.6,25.8,00.0,35.5,28.3,07.2,0000.0,0000.78,0000.43,0000.30
2021-12-20 21:33:00,,0825.7,5.01,0.00,26.6,25.8,00.0,35.5,28.3,07.2,0000.0,0000.66,0000.41,0000.30
2021-12-20 21:34:00,,0825.8,5.01,0.00,26.6,25.7,00.0,35.5,28.3,07.1,0000.0,0000.63,0000.41,0000.30
2021-12-20 21:35:00,,0825.7,4.99,0.00,26.6,25.7,00.0,35.5,28.4,07.1,0000.0,0000.78,0000.42,0000.30
2021-12-20 21:36:00,,0825.7,4.99,0.00,26.6,25.8,00.0,35.6,28.4,07.1,0000.0,0000.86,0000.42,0000.30
2021-12-20 21:37:00,,0825.8,4.99,0.00,26.6,25.8,00.0,35.6,28.4,07.1,0000.0,0000.92,0000.44,0000.30
2021-12-20 21:38:00,,0825.8,5.00,0.00,26.6,25.8,00.0,35.6,28.4,07.1,0000.0,0000.94,0000.46,0000.31
2021-12-20 21:39:00,,0826.2,4.99,0.00,26.6,25.8,00.0,35.6,28.3,07.1,0000.0,0001.86,0000.49,0000.31
2021-12-20 21:40:00,,0825.7,5.00,0.00,26.6,25.8,00.0,35.6,28.4,07.1,0000.0,0002.96,0000.54,0000.32
2021-12-20 21:41:00,,0825.9,4.99,0.00,26.6,25.8,00.0,35.6,28.4,07.1,0000.0,0003.79,0000.55,0000.32
2021-12-20 21:42:00,,0825.8,5.00,0.00,26.6,25.8,00.0,35.6,28.4,07.0,0000.0,0003.69,0000.51,0000.32
2021-12-20 21:43:00,,0825.9,5.00,0.00,26.6,25.8,00.0,35.6,28.4,07.0,0000.0,0003.71,0000.53,0000.32
2021-12-20 21:44:00,,0826.2,5.01,0.00,26.7,25.8,00.0,35.6,28.4,07.1,0000.0,0003.72,0000.53,0000.33
2021-12-20 21:45:00,,0825.7,5.00,0.00,26.7,25.8,00.0,35.6,28.4,07.0,0000.0,0003.73,0000.54,0000.33
2021-12-20 21:46:00,,0825.7,4.99,0.00,26.7,25.8,00.0,35.6,28.5,07.0,0000.0,0003.64,0000.57,0000.34
2021-12-20 21:47:00,,0825.8,5.01,0.00,26.7,25.9,00.0,35.6,28.5,07.0,0000.0,0003.66,0000.61,0000.34
2021-12-20 21:48:00,,0825.9,5.01,0.00,26.7,25.8,00.0,35.6,28.4,06.9,0000.0,0003.62,0000.60,0000.35
2021-12-20 21:49:00,,0825.7,4.99,0.00,26.7,25.8,00.0,35.6,28.4,06.9,0000.0,0003.58,0000.58,0000.34
2021-12-20 21:50:00,,0825.9,5.00,0.00,26.7,25.8,00.0,35.6,28.4,06.9,0000.0,0002.62,0000.54,0000.35
2021-12-20 21:51:00,,0825.8,4.98,0.00,26.7,25.8,00.0,35.6,28.4,06.9,0000.0,0001.51,0000.48,0000.35
2021-12-20 21:52:00,,0825.9,5.00,0.00,26.7,25.8,00.0,35.7,28.4,07.0,0000.0,0000.88,0000.52,0000.35
2021-12-20 21:53:00,,0825.8,5.01,0.00,26.7,25.8,00.0,35.7,28.5,07.0,0000.0,0000.96,0000.55,0000.36
2021-12-20 21:54:00,,0826.0,5.00,0.00,26.7,25.9,00.0,35.7,28.5,06.9,0000.0,0000.99,0000.56,0000.37
2021-12-20 21:55:00,,0825.9,5.01,0.00,26.8,25.9,00.0,35.7,28.5,07.0,0000.0,0001.08,0000.57,0000.37
2021-12-20 21:56:00,,0825.9,5.00,0.00,26.8,25.9,00.0,35.7,28.5,06.9,0000.0,0001.77,0000.57,0000.37
2021-12-20 21:57:00,,0825.8,5.00,0.00,26.8,25.9,00.0,35.7,28.5,06.9,0000.0,0001.93,0000.56,0000.37
2021-12-20 21:58:00,,0826.0,5.00,0.00,26.8,25.9,00.0,35.7,28.5,06.8,0000.0,0001.88,0000.52,0000.37
2021-12-20 21:59:00,,0825.9,5.01,0.00,26.8,25.8,00.0,35.7,28.5,06.8,0000.0,0001.97,0000.53,0000.38
